Weather History for KRRT - December, 2013

Change the Weather History Date:

Thursday, December 19, 2013

  Actual Average Record
Temperature  
Mean Temperature 10 °F -  
Max Temperature 30 °F 16 °F 38 °F (1957)
Min Temperature -11 °F -2 °F -37 °F (1955)
Degree Days  
Heating Degree Days 56    
Moisture  
Dew Point -11 °F    
Average Humidity 74    
Maximum Humidity 84    
Minimum Humidity 18    
Precipitation  
Precipitation 0.00 in - - ()
Sea Level Pressure  
Sea Level Pressure 30.16 in    
Wind  
Wind Speed 6 mph (WNW)    
Max Wind Speed 12 mph    
Max Gust Speed -    
Visibility 10 miles    
Events Snow    
Averages and records for this station are not official NWS values.
T = Trace of Precipitation, MM = Missing Value Source: NWS Daily Summary

Daily Weather History Graph

Daily Weather History Graph

Search for Another Location

Airport or City:

Trip Planner

Search our weather history database for the weather conditions in past years. The results will help you decide how hot, cold, wet, or windy it might be!

Date:

Astronomy

Dec. 19, 2013 Rise Set
Actual Time 8:11 AM CST 4:25 PM CST
Civil Twilight 7:34 AM CST 5:03 PM CST
Nautical Twilight 6:53 AM CST 5:43 PM CST
Astronomical Twilight 6:15 AM CST 6:22 PM CST
Moon 7:03 PM CST (12/19) 9:20 AM CST (12/19)
Length of Visible Light 9h 29m
Length of Day
8h 14m
Waning Gibbous, 95% of the Moon is Illuminated
Dec 19
Waning Gibbous
Dec 25
Last Quarter
Jan 1
New
Jan 7
First Quarter
Jan 15
Full

Hourly Weather History & Observations

Time (CST) Temp. Windchill Dew Point Humidity Pressure Visibility Wind Dir Wind Speed Gust Speed Precip Events Conditions
12:13 AM -2.2 °F -18.9 °F -7.6 °F 78% 29.98 in 10.0 mi NW 10.4 mph - N/A   Clear
12:34 AM -2.2 °F -19.9 °F -7.6 °F 78% 29.98 in 10.0 mi NW 11.5 mph - N/A   Clear
12:54 AM -2.2 °F -18.0 °F -9.4 °F 71% 30.00 in 10.0 mi NW 9.2 mph - N/A   Clear
1:14 AM -2.2 °F -16.8 °F -9.4 °F 71% 30.01 in 10.0 mi NW 8.1 mph - N/A   Clear
1:34 AM -4.0 °F -19.0 °F -9.4 °F 78% 30.02 in 10.0 mi NW 8.1 mph - N/A   Clear
1:54 AM -4.0 °F -20.2 °F -9.4 °F 78% 30.03 in 10.0 mi NW 9.2 mph - N/A   Clear
2:14 AM -4.0 °F -20.2 °F -9.4 °F 78% 30.05 in 10.0 mi NW 9.2 mph - N/A   Clear
2:34 AM -5.8 °F -22.4 °F -9.4 °F 84% 30.06 in 10.0 mi NW 9.2 mph - N/A   Clear
2:54 AM -5.8 °F -21.2 °F -9.4 °F 84% 30.08 in 10.0 mi NNW 8.1 mph - N/A   Clear
3:14 AM -5.8 °F -21.2 °F -11.2 °F 77% 30.09 in 10.0 mi NNW 8.1 mph - N/A   Clear
3:34 AM -5.8 °F -21.2 °F -11.2 °F 77% 30.09 in 10.0 mi NNW 8.1 mph - N/A   Clear
3:54 AM -5.8 °F -18.4 °F -11.2 °F 77% 30.11 in 10.0 mi NNW 5.8 mph - N/A   Clear
4:14 AM -5.8 °F -19.9 °F -11.2 °F 77% 30.12 in 10.0 mi NW 6.9 mph - N/A   Clear
4:33 AM -5.8 °F -19.9 °F -11.2 °F 77% 30.13 in 10.0 mi NW 6.9 mph - N/A   Clear
4:54 AM -7.6 °F -23.4 °F -11.2 °F 84% 30.14 in 10.0 mi NW 8.1 mph - N/A   Clear
5:14 AM -7.6 °F -23.4 °F -13.0 °F 77% 30.14 in 10.0 mi NW 8.1 mph - N/A   Clear
5:33 AM -7.6 °F -23.4 °F -13.0 °F 77% 30.15 in 10.0 mi NW 8.1 mph - N/A   Clear
5:54 AM -7.6 °F -22.1 °F -14.8 °F 71% 30.16 in 10.0 mi NW 6.9 mph - N/A   Clear
6:14 AM -9.4 °F -22.7 °F -14.8 °F 77% 30.17 in 10.0 mi NW 5.8 mph - N/A   Clear
6:33 AM -9.4 °F -24.3 °F -14.8 °F 77% 30.17 in 10.0 mi NNW 6.9 mph - N/A   Clear
6:54 AM -9.4 °F -24.3 °F -14.8 °F 77% 30.18 in 10.0 mi NNW 6.9 mph - N/A   Clear
7:14 AM -9.4 °F -20.9 °F -14.8 °F 77% 30.17 in 10.0 mi NW 4.6 mph - N/A   Clear
7:33 AM -9.4 °F -18.6 °F -14.8 °F 77% 30.18 in 10.0 mi NW 3.5 mph - N/A   Clear
7:54 AM -11.2 °F -23.0 °F -16.6 °F 77% 30.17 in 10.0 mi NNW 4.6 mph - N/A   Clear
8:13 AM -11.2 °F -23.0 °F -16.6 °F 77% 30.18 in 10.0 mi NNW 4.6 mph - N/A   Clear
8:34 AM -11.2 °F -24.8 °F -16.6 °F 77% 30.19 in 10.0 mi NNW 5.8 mph - N/A   Clear
8:54 AM -11.2 °F -26.4 °F -16.6 °F 77% 30.19 in 2.5 mi North 6.9 mph - N/A   Haze
9:14 AM -9.4 °F - -16.6 °F 71% 30.20 in 10.0 mi Calm Calm - N/A   Clear
9:34 AM -9.4 °F -22.7 °F -16.6 °F 71% 30.21 in 10.0 mi NNW 5.8 mph - N/A   Clear
9:54 AM -9.4 °F -18.6 °F -14.8 °F 77% 30.22 in 10.0 mi NNW 3.5 mph - N/A   Clear
10:14 AM -9.4 °F - -14.8 °F 77% 30.23 in 10.0 mi Calm Calm - N/A   Clear
10:34 AM -9.4 °F -20.9 °F -14.8 °F 77% 30.24 in 10.0 mi NW 4.6 mph - N/A   Clear
10:53 AM -7.6 °F - -14.8 °F 71% 30.26 in 10.0 mi Calm Calm - N/A   Clear
11:14 AM -5.8 °F - -13.0 °F 71% 30.25 in 10.0 mi Calm Calm - N/A   Clear
11:34 AM -5.8 °F - -13.0 °F 71% 30.25 in 10.0 mi Calm Calm - N/A   Clear
11:53 AM -5.8 °F - -13.0 °F 71% 30.24 in 10.0 mi Calm Calm - N/A   Clear
12:14 PM -4.0 °F - -11.2 °F 71% 30.23 in 10.0 mi Calm Calm - N/A   Clear
12:34 PM -4.0 °F - -11.2 °F 71% 30.23 in 10.0 mi Calm Calm - N/A   Clear
12:54 PM -2.2 °F - -11.2 °F 66% 30.22 in 10.0 mi Calm Calm - N/A   Clear
1:14 PM -4.0 °F -12.4 °F -11.2 °F 71% 30.21 in 10.0 mi South 3.5 mph - N/A   Clear
1:34 PM -4.0 °F - -11.2 °F 71% 30.20 in 10.0 mi Calm Calm - N/A   Clear
1:54 PM -4.0 °F -14.6 °F -11.2 °F 71% 30.20 in 10.0 mi SSW 4.6 mph - N/A   Clear
2:14 PM -2.2 °F -10.4 °F -11.2 °F 66% 30.21 in 10.0 mi SSW 3.5 mph - N/A   Clear
2:34 PM -2.2 °F - -9.4 °F 71% 30.20 in 10.0 mi Calm Calm - N/A   Clear
2:54 PM -0.4 °F -10.4 °F -9.4 °F 66% 30.20 in 10.0 mi WNW 4.6 mph - N/A   Clear
3:14 PM -0.4 °F - -9.4 °F 66% 30.20 in 10.0 mi Calm Calm - N/A   Clear
3:34 PM -0.4 °F -8.3 °F -9.4 °F 66% 30.20 in 10.0 mi West 3.5 mph - N/A   Clear
3:54 PM -0.4 °F -8.3 °F -9.4 °F 66% 30.21 in - West 3.5 mph - N/A   Clear
4:14 PM -0.4 °F -8.3 °F -9.4 °F 66% 30.21 in 10.0 mi West 3.5 mph - N/A   Clear
4:34 PM -2.2 °F -10.4 °F -9.4 °F 71% 30.22 in 10.0 mi WSW 3.5 mph - N/A   Clear
4:54 PM 30.2 °F - -9.4 °F 18% 30.21 in 10.0 mi Calm Calm - N/A   Clear
5:14 PM - - 28.4 °F N/A% 30.21 in 10.0 mi Calm Calm - N/A   Clear
5:34 PM -2.2 °F -10.4 °F -9.4 °F 71% 30.21 in 10.0 mi West 3.5 mph - N/A   Clear
5:54 PM -2.2 °F -10.4 °F -9.4 °F 71% 30.21 in 10.0 mi WSW 3.5 mph - N/A   Mostly Cloudy
6:14 PM -2.2 °F - -9.4 °F 71% 30.20 in 10.0 mi Calm Calm - N/A   Scattered Clouds
6:33 PM -2.2 °F -10.4 °F -9.4 °F 71% 30.20 in 10.0 mi SSW 3.5 mph - N/A   Mostly Cloudy
6:54 PM -2.2 °F -10.4 °F -7.6 °F 78% 30.20 in 5.0 mi SW 3.5 mph - N/A Snow Light Snow
7:14 PM -2.2 °F -10.4 °F -7.6 °F 78% 30.20 in 5.0 mi SW 3.5 mph - N/A Snow Light Snow
7:34 PM -2.2 °F -10.4 °F -7.6 °F 78% 30.20 in 4.0 mi WSW 3.5 mph - N/A Snow Light Snow
7:51 PM -2.2 °F - -7.6 °F 78% 30.20 in 3.0 mi Calm Calm - N/A Snow Light Snow
8:14 PM -2.2 °F -10.4 °F -7.6 °F 78% 30.18 in 7.0 mi SSW 3.5 mph - N/A   Scattered Clouds
8:34 PM -2.2 °F -10.4 °F -7.6 °F 78% 30.17 in 10.0 mi SSW 3.5 mph - N/A Snow Light Snow
8:53 PM -4.0 °F - -9.4 °F 78% 30.17 in 10.0 mi Calm Calm - N/A   Scattered Clouds
9:14 PM -4.0 °F - -9.4 °F 78% 30.16 in 10.0 mi Calm Calm - N/A   Mostly Cloudy
9:34 PM -5.8 °F - -9.4 °F 84% 30.15 in 10.0 mi Calm Calm - N/A   Mostly Cloudy
9:54 PM -5.8 °F -14.5 °F -11.2 °F 77% 30.15 in 10.0 mi South 3.5 mph - N/A   Scattered Clouds
10:14 PM -7.6 °F -18.8 °F -11.2 °F 84% 30.15 in 10.0 mi SSW 4.6 mph - N/A   Clear
10:34 PM -7.6 °F -18.8 °F -11.2 °F 84% 30.15 in 10.0 mi SW 4.6 mph - N/A   Clear
10:54 PM -7.6 °F -16.5 °F -11.2 °F 84% 30.14 in 10.0 mi SW 3.5 mph - N/A   Clear
11:14 PM -7.6 °F -16.5 °F -13.0 °F 77% 30.13 in 10.0 mi SSW 3.5 mph - N/A   Clear
11:34 PM -7.6 °F -18.8 °F -13.0 °F 77% 30.13 in 10.0 mi SSW 4.6 mph - N/A   Clear
11:54 PM -7.6 °F -22.1 °F -13.0 °F 77% 30.12 in 10.0 mi SSW 6.9 mph - N/A   Clear